Content
SEND FEEDBACK

Daily
Averages
Monthly
Summary
United States of America

STEAMBOAT SPRINGS, COLORADO


Home > North America > United States > Colorado
Elevation: 6917 feet     Latitude: 40 30N     Longitude: 106 50W

WEATHER
 
SELECT A DAY
Number of Records: 82,684;   Date Range: 1/3/95 - 7/27/14
 
SHARE

PRINT THIS DATA

[ ← Previous Day ]
WEATHER ALMANAC - JUNE 29, 2013
[ Next Day → ]
[ °C ]   °F
We're sorry. There is no daily almanac available for Steamboat Springs, Colorado on June 29, 2013.
WEATHER BY HOUR - JUNE 29, 2013
[ °C ]   °F
Local TimeTemperatureDewpointHumidityBarometerVisibilityWind DirectionWind SpeedGust SpeedPrecipitationEventsConditions
12:35 AM62.8 °F38.5 °F41 %30.31 in10.0 miNorth (350°)3.5 mphClear
12:55 AM63.1 °F39.0 °F41 %30.32 in10.0 miCalmClear
1:15 AM61.3 °F41.4 °F48 %30.32 in10.0 miCalmClear
1:35 AM62.1 °F40.5 °F45 %30.32 in10.0 miCalmClear
1:55 AM61.5 °F40.8 °F47 %30.32 in10.0 miCalmClear
2:15 AM60.6 °F41.7 °F50 %30.32 in10.0 miCalmClear
2:35 AM63.1 °F40.3 °F43 %30.32 in10.0 miCalmClear
2:55 AM60.6 °F41.0 °F48 %30.32 in10.0 miCalmClear
3:15 AM61.0 °F42.1 °F50 %30.32 in10.0 miCalmClear
3:35 AM59.5 °F42.1 °F52 %30.31 in10.0 miCalmClear
3:55 AM58.5 °F42.4 °F55 %30.31 in10.0 miWNW (300°)5.8 mphClear
4:15 AM57.4 °F42.8 °F58 %30.32 in10.0 miCalmClear
4:35 AM56.5 °F43.0 °F61 %30.32 in10.0 miCalmClear
4:55 AM56.1 °F43.2 °F62 %30.32 in10.0 miCalmClear
5:15 AM57.4 °F42.8 °F58 %30.32 in10.0 miCalmClear
5:35 AM55.4 °F43.0 °F63 %30.32 in10.0 miCalmClear
5:55 AM54.3 °F43.2 °F66 %30.33 in10.0 miCalmClear
6:15 AM54.3 °F43.0 °F66 %30.34 in10.0 miCalmClear
6:35 AM57.0 °F43.5 °F61 %30.34 in10.0 miENE (70°)4.6 mphClear
6:55 AM58.3 °F43.9 °F59 %30.34 in10.0 miCalmClear
7:15 AM58.6 °F44.4 °F59 %30.34 in10.0 miCalmClear
7:35 AM61.2 °F43.7 °F53 %30.35 in10.0 miCalmClear
7:55 AM63.9 °F44.2 °F49 %30.35 in10.0 miCalmClear
8:15 AM64.6 °F45.5 °F50 %30.35 in10.0 miCalmClear
8:35 AM65.8 °F45.7 °F48 %30.35 in10.0 miCalmClear
8:55 AM67.1 °F46.4 °F47 %30.35 in10.0 miCalmClear
9:15 AM70.3 °F45.9 °F41 %30.34 in10.0 miCalmClear
9:35 AM72.0 °F45.0 °F38 %30.34 in10.0 miCalmClear
9:55 AM74.1 °F45.1 °F35 %30.34 in10.0 miCalmClear
10:15 AM75.2 °F45.7 °F35 %30.34 in10.0 miCalmClear
10:35 AM77.4 °F44.6 °F31 %30.32 in10.0 miCalmClear
10:55 AM79.0 °F43.0 °F28 %30.32 in10.0 miCalmClear
11:15 AM80.8 °F43.2 °F26 %30.32 in10.0 miSSE (160°)5.8 mphClear
11:35 AM81.7 °F38.3 °F21 %30.32 in10.0 miSSW (210°)4.6 mphClear
11:55 AM82.9 °F35.2 °F18 %30.31 in10.0 miCalmClear
12:15 PM84.4 °F32.9 °F16 %30.30 in10.0 miCalmClear
12:35 PM85.3 °F32.5 °F15 %30.29 in10.0 miSW (230°)4.6 mphClear
12:55 PM86.7 °F29.7 °F13 %30.29 in10.0 miCalmClear
1:15 PM86.5 °F28.2 °F12 %30.28 in10.0 miSouth (190°)4.6 mphClear
1:35 PM87.4 °F27.9 °F12 %30.26 in10.0 miSSW (210°)6.9 mphClear
1:55 PM85.1 °F28.2 °F13 %30.26 in10.0 miCalmScattered Clouds
2:15 PM84.9 °F25.9 °F12 %30.26 in10.0 miENE (60°)11.5 mphScattered Clouds
2:35 PM84.6 °F31.5 °F15 %30.24 in10.0 miNE (50°)11.5 mphScattered Clouds
2:55 PM83.1 °F33.3 °F17 %30.24 in10.0 miNNE (30°)13.8 mph21.9 mphMostly Cloudy
3:15 PM80.6 °F38.1 °F22 %30.24 in10.0 miNE (50°)10.4 mphScattered Clouds
3:35 PM84.9 °F39.2 °F20 %30.23 in10.0 miESE (110°)9.2 mphScattered Clouds
3:55 PM84.4 °F37.0 °F19 %30.23 in10.0 miESE (110°)8.1 mphScattered Clouds
4:15 PM87.8 °F28.8 °F12 %30.22 in10.0 miSE (130°)9.2 mphClear
4:35 PM87.6 °F26.4 °F11 %30.21 in10.0 miSE (130°)10.4 mphScattered Clouds
4:55 PM85.6 °F26.2 °F12 %30.21 in10.0 miSE (130°)10.4 mphScattered Clouds
5:15 PM84.7 °F32.0 °F15 %30.21 in10.0 miESE (120°)9.2 mphScattered Clouds
5:35 PM86.4 °F34.3 °F16 %30.21 in10.0 miEast (80°)10.4 mphScattered Clouds
5:55 PM81.7 °F35.8 °F19 %30.22 in10.0 miEast (90°)9.2 mphScattered Clouds
6:15 PM82.6 °F32.4 °F16 %30.21 in10.0 miESE (110°)9.2 mphScattered Clouds
6:35 PM84.0 °F33.3 °F16 %30.21 in10.0 miESE (110°)9.2 mphClear
6:55 PM84.4 °F32.2 °F15 %30.21 in10.0 miEast (100°)8.1 mphClear
7:15 PM83.5 °F32.2 °F16 %30.20 in10.0 miEast (90°)11.5 mphClear
7:35 PM82.8 °F30.7 °F15 %30.20 in10.0 miENE (70°)9.2 mphClear
7:55 PM79.7 °F32.0 °F18 %30.21 in10.0 miNE (50°)15.0 mph19.6 mphMostly Cloudy
8:15 PM75.2 °F35.1 °F23 %30.21 in10.0 miENE (70°)11.5 mphMostly Cloudy
8:35 PM73.2 °F37.0 °F27 %30.21 in10.0 miEast (80°)10.4 mphClear
8:55 PM73.9 °F33.6 °F23 %30.22 in10.0 miENE (60°)9.2 mphClear
9:15 PM70.7 °F40.3 °F33 %30.26 in10.0 miSSW (210°)4.6 mphMostly Cloudy
9:35 PM70.7 °F38.3 °F31 %30.28 in10.0 miWest (260°)8.1 mphOvercast
9:55 PM67.1 °F41.7 °F40 %30.31 in10.0 miWest (270°)5.8 mphOvercast
10:15 PM65.3 °F44.2 °F46 %30.34 in10.0 miNNE (30°)5.8 mphOvercast
10:35 PM64.8 °F45.1 °F49 %30.36 in10.0 miCalmOvercast
10:55 PM63.5 °F46.9 °F55 %30.36 in10.0 miSE (130°)4.6 mphOvercast
11:15 PM64.2 °F45.5 °F51 %30.34 in10.0 miEast (80°)8.1 mphMostly Cloudy
11:35 PM63.7 °F45.1 °F51 %30.33 in10.0 miEast (90°)9.2 mphClear
11:55 PM64.6 °F44.6 °F48 %30.31 in10.0 miENE (70°)11.5 mphClear
Hourly data recorded from KSBS, located miles away from Steamboat Springs, Colorado







STORIES FROM OUR PARTNERS